Weather History for Buffalo, WY

Change the Weather History Date:

Saturday, January 12, 2013

  Actual Average Record
Temperature  
Mean Temperature 5 °F 28 °F  
Max Temperature 9 °F 39 °F 63 °F (2010)
Min Temperature 1 °F 17 °F -16 °F (2007)
Degree Days  
Heating Degree Days 60 37  
Month to date heating degree days 435 450  
Since 1 July heating degree days 3160 3497  
Cooling Degree Days 0 0  
Month to date cooling degree days 0 0  
Year to date cooling degree days 0 0  
Moisture  
Dew Point 0 °F    
Average Humidity 78    
Maximum Humidity 87    
Minimum Humidity 69    
Precipitation  
Precipitation T in 0.01 in 0.08 in (2009)
Month to date precipitation T 0.13  
Year to date precipitation T 0.13  
Sea Level Pressure  
Sea Level Pressure 30.08 in    
Wind  
Wind Speed 9 mph (NW)    
Max Wind Speed 36 mph    
Max Gust Speed 44 mph    
Visibility 5 miles    
Events Snow    
T = Trace of Precipitation, MM = Missing Value Source: NWS Daily Summary

Daily Weather History Graph

Daily Weather History Graph

Search for Another Location

Airport:

Trip Planner

Search our weather history database for the weather conditions in past years. The results will help you decide how hot, cold, wet, or windy it might be!

Date:

Astronomy

Jan. 12, 2013 Rise Set
Actual Time 7:40 AM MST 4:50 PM MST
Civil Twilight 7:08 AM MST 5:22 PM MST
Nautical Twilight 6:32 AM MST 5:58 PM MST
Astronomical Twilight 5:57 AM MST 6:33 PM MST
Moon 7:57 AM MST (1/12) 6:27 PM MST (1/12)
Length of Visible Light 10h 14m
Length of Day
9h 09m
New Moon, 1% of the Moon is Illuminated
Jan 12
New Moon
Jan 18
First Quarter
Jan 26
Full
Feb 3
Last Quarter
Feb 10
New

Hourly Weather History & Observations

Time (MST) Temp. Windchill Dew Point Humidity Pressure Visibility Wind Dir Wind Speed Gust Speed Precip Events Conditions
12:13 AM 1.4 °F -23.9 °F -2.2 °F 85% 29.83 in 3.0 mi NNW 29.9 mph 36.8 mph 0.00 in Snow Light Snow
12:53 AM 1.9 °F -23.2 °F -4.0 °F 76% 30.10 in 9.0 mi NNW 29.9 mph 40.3 mph 0.00 in   Overcast
1:49 AM 3.2 °F -20.3 °F -2.2 °F 78% 29.86 in 2.5 mi NNW 26.5 mph 42.6 mph 0.00 in Snow Light Snow
1:53 AM 3.0 °F -21.7 °F -2.9 °F 76% 30.11 in 2.5 mi North 29.9 mph 39.1 mph 0.00 in Snow Light Snow
2:19 AM 1.4 °F -23.2 °F -2.2 °F 85% 29.88 in 4.0 mi North 27.6 mph 36.8 mph 0.00 in Snow Light Snow
2:53 AM 1.9 °F -20.7 °F -2.9 °F 80% 30.15 in 6.0 mi North 23.0 mph 34.5 mph 0.00 in Snow Light Snow
3:53 AM 3.0 °F -21.4 °F -2.0 °F 80% 30.14 in 10.0 mi North 28.8 mph 34.5 mph 0.00 in   Overcast
4:53 AM 3.9 °F -18.1 °F -0.9 °F 80% 30.15 in 8.0 mi North 23.0 mph 34.5 mph 0.00 in Snow Light Snow
5:53 AM 3.0 °F -15.5 °F -2.0 °F 80% 30.18 in 9.0 mi NNW 15.0 mph 24.2 mph 0.00 in Snow Light Snow
6:19 AM 3.2 °F -10.3 °F -0.4 °F 85% 29.92 in 10.0 mi WNW 8.1 mph - 0.00 in   Overcast
6:28 AM 3.2 °F -13.1 °F -0.4 °F 85% 29.92 in 10.0 mi WNW 11.5 mph - 0.00 in   Overcast
6:42 AM 3.2 °F -11.3 °F -0.4 °F 85% 29.93 in 4.0 mi NNW 9.2 mph - 0.00 in Snow Light Snow
6:53 AM 3.0 °F -10.5 °F -0.9 °F 84% 30.20 in 1.8 mi NNW 8.1 mph - 0.00 in Snow Light Snow
7:08 AM 3.2 °F -10.3 °F -0.4 °F 85% 29.94 in 3.0 mi NNW 8.1 mph - 0.00 in Snow Light Snow
7:48 AM 3.2 °F -6.2 °F -0.4 °F 85% 29.96 in 5.0 mi NNW 4.6 mph - 0.00 in   Overcast
7:53 AM 3.0 °F -9.3 °F -0.9 °F 84% 30.23 in 3.0 mi NNW 6.9 mph - 0.00 in Snow Light Snow
8:00 AM 3.2 °F -10.3 °F -0.4 °F 85% 29.97 in 1.8 mi NW 8.1 mph - 0.00 in Snow Light Snow
8:08 AM 3.2 °F -10.3 °F -0.4 °F 85% 29.97 in 1.2 mi NW 8.1 mph - 0.00 in Snow Light Snow
8:15 AM 3.2 °F -11.3 °F -0.4 °F 85% 29.97 in 1.8 mi NW 9.2 mph - 0.00 in Snow Light Snow
8:25 AM 3.2 °F -12.2 °F -0.4 °F 85% 29.98 in 2.5 mi NNW 10.4 mph - 0.00 in Snow Light Snow
8:33 AM 3.2 °F -11.3 °F -0.4 °F 85% 29.98 in 5.0 mi NW 9.2 mph - 0.00 in Snow Light Snow
8:53 AM 3.9 °F -10.4 °F -0.9 °F 80% 30.23 in 3.0 mi NW 9.2 mph - 0.00 in   Haze
9:53 AM 5.0 °F -2.1 °F -0.0 °F 80% 30.25 in 5.0 mi SSE 3.5 mph - N/A   Haze
10:19 AM 6.8 °F - -0.4 °F 72% 30.00 in 2.5 mi Calm Calm - 0.00 in Snow Light Snow
10:26 AM 6.8 °F -3.5 °F -0.4 °F 72% 30.00 in 5.0 mi SSE 5.8 mph - 0.00 in Snow Light Snow
10:53 AM 6.1 °F -0.9 °F 1.0 °F 80% 30.26 in 5.0 mi South 3.5 mph - 0.00 in   Haze
11:53 AM 7.0 °F 0.1 °F 1.0 °F 77% 30.22 in 7.0 mi South 3.5 mph - 0.00 in   Overcast
12:27 PM 6.8 °F -0.1 °F 1.4 °F 79% 29.96 in 2.0 mi South 3.5 mph - 0.00 in Snow Light Snow
12:53 PM 7.0 °F - 1.0 °F 77% 30.21 in 2.0 mi Calm Calm - 0.00 in Snow Light Snow
1:04 PM 6.8 °F -0.1 °F 1.4 °F 79% 29.96 in 1.8 mi SE 3.5 mph - 0.00 in Snow Light Snow
1:12 PM 8.6 °F 0.1 °F 1.4 °F 73% 29.96 in 2.5 mi SE 4.6 mph - 0.00 in Snow Light Snow
1:31 PM 8.6 °F 0.1 °F 1.4 °F 73% 29.96 in 3.0 mi South 4.6 mph - 0.00 in Snow Light Snow
1:53 PM 8.1 °F -2.0 °F 1.9 °F 76% 30.21 in 3.0 mi South 5.8 mph - 0.00 in   Haze
2:53 PM 9.0 °F -0.9 °F 1.0 °F 70% 30.21 in 10.0 mi SSE 5.8 mph - N/A   Mostly Cloudy
3:53 PM 8.1 °F 1.4 °F -0.0 °F 70% 30.22 in 10.0 mi ESE 3.5 mph - N/A   Scattered Clouds
4:53 PM 3.9 °F - -0.9 °F 80% 30.24 in 10.0 mi Calm Calm - N/A   Scattered Clouds
6:53 PM 7.0 °F 0.1 °F -0.9 °F 70% 30.22 in 10.0 mi SSW 3.5 mph - N/A   Overcast
7:53 PM 7.0 °F - -0.0 °F 73% 30.23 in 5.0 mi Calm Calm - 0.00 in Snow Light Snow
8:53 PM 8.1 °F - 3.0 °F 80% 30.22 in 4.0 mi Calm Calm - 0.00 in   Haze
9:37 PM 6.8 °F -0.1 °F 1.4 °F 79% 29.97 in 2.5 mi NW 3.5 mph - 0.00 in Snow Light Snow
10:37 PM 5.0 °F -2.1 °F 1.4 °F 85% 29.98 in 8.0 mi NW 3.5 mph - 0.00 in   Overcast
10:53 PM 3.9 °F -3.4 °F -0.0 °F 84% 30.24 in 8.0 mi NW 3.5 mph - 0.00 in   Overcast
11:53 PM 5.0 °F -5.6 °F 1.0 °F 84% 30.24 in 10.0 mi NW 5.8 mph - N/A   Overcast